Time,TemperatureF,DewpointF,PressureIn,WindDirection,WindDirectionDegrees,WindSpeedMPH,WindSpeedGustMPH,Humidity,HourlyPrecipIn,Conditions,Clouds,dailyrainin,SoftwareType,DateUTC
2013-01-18 00:02:00,54.0,15.0,-100.00,NNE,12,6.0,12.0,21,-99.99,,,-99.99,,2013-01-18 08:02:00,
2013-01-18 00:11:00,54.0,15.0,-100.00,NNE,16,8.0,13.0,21,-99.99,,,-99.99,,2013-01-18 08:11:00,
2013-01-18 00:22:00,53.0,14.0,-100.00,NNE,15,7.0,13.0,21,-99.99,,,-99.99,,2013-01-18 08:22:00,
2013-01-18 00:32:00,53.0,15.0,-100.00,NNE,16,7.0,12.0,22,-99.99,,,-99.99,,2013-01-18 08:32:00,
2013-01-18 00:42:00,53.0,15.0,-100.00,North,11,6.0,12.0,22,-99.99,,,-99.99,,2013-01-18 08:42:00,
2013-01-18 00:52:00,53.0,15.0,-100.00,North,11,6.0,11.0,22,-99.99,,,-99.99,,2013-01-18 08:52:00,
2013-01-18 01:02:00,53.0,15.0,-100.00,NNE,15,6.0,11.0,22,-99.99,,,-99.99,,2013-01-18 09:02:00,
2013-01-18 01:12:00,53.0,15.0,-100.00,North,11,6.0,11.0,22,-99.99,,,-99.99,,2013-01-18 09:12:00,
2013-01-18 01:22:00,52.0,14.0,-100.00,North,10,7.0,13.0,22,-99.99,,,-99.99,,2013-01-18 09:22:00,
2013-01-18 01:32:00,52.0,14.0,-100.00,North,9,7.0,12.0,22,-99.99,,,-99.99,,2013-01-18 09:32:00,
2013-01-18 01:42:00,52.0,14.0,-100.00,North,5,6.0,11.0,22,-99.99,,,-99.99,,2013-01-18 09:42:00,
2013-01-18 01:52:00,52.0,15.0,-100.00,North,5,6.0,10.0,23,-99.99,,,-99.99,,2013-01-18 09:52:00,
2013-01-18 02:02:00,52.0,14.0,-100.00,North,7,6.0,11.0,22,-99.99,,,-99.99,,2013-01-18 10:02:00,
2013-01-18 02:12:00,52.0,15.0,-100.00,North,9,6.0,12.0,23,-99.99,,,-99.99,,2013-01-18 10:12:00,
2013-01-18 02:22:00,52.0,15.0,-100.00,NNE,18,7.0,11.0,23,-99.99,,,-99.99,,2013-01-18 10:22:00,
2013-01-18 02:32:00,52.0,15.0,-100.00,NNE,14,7.0,9.0,23,-99.99,,,-99.99,,2013-01-18 10:32:00,
2013-01-18 02:42:00,52.0,15.0,-100.00,NNE,14,7.0,9.0,23,-99.99,,,-99.99,,2013-01-18 10:42:00,
2013-01-18 02:52:00,52.0,15.0,-100.00,NNE,14,6.0,10.0,23,-99.99,,,-99.99,,2013-01-18 10:52:00,
2013-01-18 03:02:00,52.0,15.0,-100.00,NNE,13,6.0,10.0,23,-99.99,,,-99.99,,2013-01-18 11:02:00,
2013-01-18 03:12:00,53.0,15.0,-100.00,NNE,14,6.0,11.0,22,-99.99,,,-99.99,,2013-01-18 11:12:00,
2013-01-18 03:22:00,53.0,15.0,-100.00,NNE,13,5.0,10.0,22,-99.99,,,-99.99,,2013-01-18 11:22:00,
2013-01-18 03:32:00,53.0,16.0,-100.00,North,9,6.0,11.0,23,-99.99,,,-99.99,,2013-01-18 11:32:00,
2013-01-18 03:42:00,53.0,16.0,-100.00,NNE,13,6.0,10.0,23,-99.99,,,-99.99,,2013-01-18 11:42:00,
2013-01-18 03:52:00,52.0,15.0,-100.00,NNE,12,6.0,11.0,23,-99.99,,,-99.99,,2013-01-18 11:52:00,
2013-01-18 04:02:00,52.0,15.0,-100.00,North,10,6.0,10.0,23,-99.99,,,-99.99,,2013-01-18 12:02:00,
2013-01-18 04:12:00,52.0,16.0,-100.00,North,10,6.0,10.0,24,-99.99,,,-99.99,,2013-01-18 12:12:00,
2013-01-18 04:22:00,52.0,16.0,-100.00,North,9,6.0,11.0,24,-99.99,,,-99.99,,2013-01-18 12:22:00,
2013-01-18 04:32:00,51.0,16.0,-100.00,North,6,6.0,11.0,24,-99.99,,,-99.99,,2013-01-18 12:32:00,
2013-01-18 04:42:00,51.0,16.0,-100.00,North,6,7.0,10.0,24,-99.99,,,-99.99,,2013-01-18 12:42:00,
2013-01-18 04:52:00,51.0,16.0,-100.00,North,6,7.0,11.0,24,-99.99,,,-99.99,,2013-01-18 12:52:00,
2013-01-18 05:02:00,51.0,16.0,-100.00,North,9,7.0,10.0,25,-99.99,,,-99.99,,2013-01-18 13:02:00,
2013-01-18 05:12:00,51.0,16.0,-100.00,North,5,7.0,8.0,25,-99.99,,,-99.99,,2013-01-18 13:12:00,
2013-01-18 05:22:00,52.0,17.0,-100.00,North,10,5.0,8.0,25,-99.99,,,-99.99,,2013-01-18 13:22:00,
2013-01-18 05:33:00,52.0,16.0,-100.00,NNE,16,4.0,9.0,24,-99.99,,,-99.99,,2013-01-18 13:33:00,
2013-01-18 05:42:00,52.0,16.0,-100.00,NNE,16,4.0,9.0,24,-99.99,,,-99.99,,2013-01-18 13:42:00,
2013-01-18 05:52:00,52.0,16.0,-100.00,North,11,4.0,10.0,24,-99.99,,,-99.99,,2013-01-18 13:52:00,
2013-01-18 06:03:00,52.0,16.0,-100.00,North,11,4.0,10.0,24,-99.99,,,-99.99,,2013-01-18 14:03:00,
2013-01-18 06:12:00,52.0,17.0,-100.00,North,10,6.0,11.0,25,-99.99,,,-99.99,,2013-01-18 14:12:00,
2013-01-18 06:22:00,51.0,16.0,-100.00,North,8,7.0,10.0,25,-99.99,,,-99.99,,2013-01-18 14:22:00,
2013-01-18 06:33:00,51.0,16.0,-100.00,North,8,6.0,9.0,25,-99.99,,,-99.99,,2013-01-18 14:33:00,
2013-01-18 06:42:00,51.0,16.0,-100.00,North,10,6.0,8.0,25,-99.99,,,-99.99,,2013-01-18 14:42:00,
2013-01-18 06:53:00,52.0,17.0,-100.00,NNE,12,5.0,9.0,25,-99.99,,,-99.99,,2013-01-18 14:53:00,
2013-01-18 07:02:00,52.0,16.0,-100.00,North,11,5.0,10.0,24,-99.99,,,-99.99,,2013-01-18 15:02:00,
2013-01-18 07:12:00,53.0,17.0,-100.00,North,10,5.0,11.0,24,-99.99,,,-99.99,,2013-01-18 15:12:00,
2013-01-18 07:22:00,53.0,17.0,-100.00,NNE,13,5.0,10.0,24,-99.99,,,-99.99,,2013-01-18 15:22:00,
2013-01-18 07:33:00,53.0,17.0,-100.00,North,10,5.0,9.0,24,-99.99,,,-99.99,,2013-01-18 15:33:00,
2013-01-18 07:42:00,53.0,17.0,-100.00,North,10,5.0,9.0,24,-99.99,,,-99.99,,2013-01-18 15:42:00,
2013-01-18 07:52:00,54.0,17.0,-100.00,North,10,5.0,14.0,23,-99.99,,,-99.99,,2013-01-18 15:52:00,
2013-01-18 08:02:00,54.0,17.0,-100.00,North,10,5.0,14.0,23,-99.99,,,-99.99,,2013-01-18 16:02:00,
2013-01-18 08:12:00,55.0,17.0,-100.00,North,8,8.0,12.0,22,-99.99,,,-99.99,,2013-01-18 16:12:00,
2013-01-18 08:22:00,56.0,18.0,-100.00,North,8,7.0,9.0,22,-99.99,,,-99.99,,2013-01-18 16:22:00,
2013-01-18 08:32:00,58.0,19.0,-100.00,NNE,19,4.0,8.0,22,-99.99,,,-99.99,,2013-01-18 16:32:00,
2013-01-18 08:42:00,58.0,19.0,-100.00,NNE,19,4.0,8.0,22,-99.99,,,-99.99,,2013-01-18 16:42:00,
2013-01-18 08:52:00,59.0,19.0,-100.00,NNE,24,4.0,9.0,21,-99.99,,,-99.99,,2013-01-18 16:52:00,
2013-01-18 09:02:00,60.0,19.0,-100.00,NNE,27,4.0,10.0,20,-99.99,,,-99.99,,2013-01-18 17:02:00,
2013-01-18 09:12:00,60.0,19.0,-100.00,NNE,30,5.0,10.0,20,-99.99,,,-99.99,,2013-01-18 17:12:00,
2013-01-18 09:22:00,61.0,18.0,-100.00,NNE,33,4.0,10.0,19,-99.99,,,-99.99,,2013-01-18 17:22:00,
2013-01-18 09:33:00,62.0,19.0,-100.00,NE,37,4.0,14.0,19,-99.99,,,-99.99,,2013-01-18 17:33:00,
2013-01-18 09:42:00,63.0,20.0,-100.00,NE,42,4.0,10.0,19,-99.99,,,-99.99,,2013-01-18 17:42:00,
2013-01-18 09:53:00,64.0,20.0,-100.00,East,95,2.0,9.0,18,-99.99,,,-99.99,,2013-01-18 17:53:00,
2013-01-18 10:03:00,64.0,20.0,-100.00,East,95,2.0,9.0,18,-99.99,,,-99.99,,2013-01-18 18:03:00,
2013-01-18 10:12:00,65.0,20.0,-100.00,East,87,4.0,9.0,18,-99.99,,,-99.99,,2013-01-18 18:12:00,
2013-01-18 10:23:00,65.0,19.0,-100.00,ESE,103,4.0,10.0,17,-99.99,,,-99.99,,2013-01-18 18:23:00,
2013-01-18 10:33:00,66.0,20.0,-100.00,East,93,4.0,9.0,17,-99.99,,,-99.99,,2013-01-18 18:33:00,
2013-01-18 10:43:00,67.0,21.0,-100.00,ENE,67,4.0,9.0,17,-99.99,,,-99.99,,2013-01-18 18:43:00,
2013-01-18 10:52:00,67.0,19.0,-100.00,East,87,4.0,8.0,16,-99.99,,,-99.99,,2013-01-18 18:52:00,
2013-01-18 11:02:00,68.0,20.0,-100.00,ESE,104,3.0,8.0,16,-99.99,,,-99.99,,2013-01-18 19:02:00,
2013-01-18 11:12:00,68.0,20.0,-100.00,East,92,3.0,7.0,16,-99.99,,,-99.99,,2013-01-18 19:12:00,
2013-01-18 11:22:00,69.0,19.0,-100.00,ESE,110,3.0,8.0,15,-99.99,,,-99.99,,2013-01-18 19:22:00,
2013-01-18 11:32:00,69.0,19.0,-100.00,East,83,3.0,10.0,15,-99.99,,,-99.99,,2013-01-18 19:32:00,
2013-01-18 11:42:00,69.0,19.0,-100.00,ESE,121,4.0,8.0,15,-99.99,,,-99.99,,2013-01-18 19:42:00,
2013-01-18 11:52:00,69.0,19.0,-100.00,SE,128,3.0,9.0,15,-99.99,,,-99.99,,2013-01-18 19:52:00,
2013-01-18 12:02:00,69.0,19.0,-100.00,SE,133,5.0,9.0,15,-99.99,,,-99.99,,2013-01-18 20:02:00,
2013-01-18 12:12:00,69.0,18.0,-100.00,SE,144,5.0,10.0,14,-99.99,,,-99.99,,2013-01-18 20:12:00,
2013-01-18 12:22:00,70.0,19.0,-100.00,ESE,111,6.0,9.0,14,-99.99,,,-99.99,,2013-01-18 20:22:00,
2013-01-18 12:33:00,69.0,18.0,-100.00,ESE,105,4.0,8.0,14,-99.99,,,-99.99,,2013-01-18 20:33:00,
2013-01-18 12:42:00,70.0,19.0,-100.00,NNE,29,3.0,7.0,14,-99.99,,,-99.99,,2013-01-18 20:42:00,
2013-01-18 12:52:00,70.0,19.0,-100.00,ESE,123,3.0,10.0,14,-99.99,,,-99.99,,2013-01-18 20:52:00,
2013-01-18 13:02:00,71.0,18.0,-100.00,South,176,4.0,7.0,13,-99.99,,,-99.99,,2013-01-18 21:02:00,
2013-01-18 13:12:00,70.0,19.0,-100.00,SSW,200,2.0,9.0,14,-99.99,,,-99.99,,2013-01-18 21:12:00,
2013-01-18 13:22:00,70.0,20.0,-100.00,WNW,300,3.0,10.0,15,-99.99,,,-99.99,,2013-01-18 21:22:00,
2013-01-18 13:33:00,70.0,20.0,-100.00,NW,321,4.0,13.0,15,-99.99,,,-99.99,,2013-01-18 21:33:00,
2013-01-18 13:42:00,69.0,19.0,-100.00,NNW,343,6.0,16.0,15,-99.99,,,-99.99,,2013-01-18 21:42:00,
2013-01-18 13:52:00,69.0,19.0,-100.00,NNW,343,9.0,15.0,15,-99.99,,,-99.99,,2013-01-18 21:52:00,
2013-01-18 14:02:00,69.0,19.0,-100.00,NNW,340,10.0,15.0,15,-99.99,,,-99.99,,2013-01-18 22:02:00,
2013-01-18 14:12:00,69.0,19.0,-100.00,North,355,8.0,11.0,15,-99.99,,,-99.99,,2013-01-18 22:12:00,
2013-01-18 14:22:00,69.0,19.0,-100.00,North,9,5.0,15.0,15,-99.99,,,-99.99,,2013-01-18 22:22:00,
2013-01-18 14:32:00,69.0,19.0,-100.00,NNE,18,9.0,13.0,15,-99.99,,,-99.99,,2013-01-18 22:32:00,
2013-01-18 14:42:00,69.0,18.0,-100.00,North,1,7.0,11.0,14,-99.99,,,-99.99,,2013-01-18 22:42:00,
2013-01-18 14:52:00,68.0,19.0,-100.00,North,1,8.0,14.0,15,-99.99,,,-99.99,,2013-01-18 22:52:00,
2013-01-18 15:02:00,68.0,19.0,-100.00,North,1,8.0,14.0,15,-99.99,,,-99.99,,2013-01-18 23:02:00,
2013-01-18 15:12:00,68.0,19.0,-100.00,North,6,9.0,13.0,15,-99.99,,,-99.99,,2013-01-18 23:12:00,
2013-01-18 15:22:00,68.0,19.0,-100.00,North,6,8.0,13.0,15,-99.99,,,-99.99,,2013-01-18 23:22:00,
2013-01-18 15:32:00,67.0,19.0,-100.00,North,4,8.0,13.0,16,-99.99,,,-99.99,,2013-01-18 23:32:00,
2013-01-18 15:42:00,67.0,19.0,-100.00,North,4,8.0,13.0,16,-99.99,,,-99.99,,2013-01-18 23:42:00,
2013-01-18 15:52:00,66.0,19.0,-100.00,North,4,8.0,13.0,16,-99.99,,,-99.99,,2013-01-18 23:52:00,
2013-01-18 16:02:00,66.0,19.0,-100.00,North,6,7.0,14.0,16,-99.99,,,-99.99,,2013-01-19 00:02:00,
2013-01-18 16:12:00,65.0,19.0,-100.00,North,5,8.0,15.0,17,-99.99,,,-99.99,,2013-01-19 00:12:00,
2013-01-18 16:22:00,64.0,18.0,-100.00,North,3,9.0,13.0,17,-99.99,,,-99.99,,2013-01-19 00:22:00,
2013-01-18 16:32:00,64.0,18.0,-100.00,North,5,7.0,13.0,17,-99.99,,,-99.99,,2013-01-19 00:32:00,
2013-01-18 16:42:00,64.0,18.0,-100.00,North,7,7.0,10.0,17,-99.99,,,-99.99,,2013-01-19 00:42:00,
2013-01-18 16:52:00,63.0,19.0,-100.00,NNE,13,6.0,10.0,18,-99.99,,,-99.99,,2013-01-19 00:52:00,
2013-01-18 17:02:00,62.0,18.0,-100.00,NNE,14,5.0,7.0,18,-99.99,,,-99.99,,2013-01-19 01:02:00,
2013-01-18 17:12:00,61.0,18.0,-100.00,NNE,17,4.0,9.0,19,-99.99,,,-99.99,,2013-01-19 01:12:00,
2013-01-18 17:22:00,60.0,18.0,-100.00,North,9,4.0,7.0,19,-99.99,,,-99.99,,2013-01-19 01:22:00,
2013-01-18 17:32:00,59.0,18.0,-100.00,North,8,4.0,8.0,20,-99.99,,,-99.99,,2013-01-19 01:32:00,
2013-01-18 17:42:00,58.0,18.0,-100.00,North,8,5.0,9.0,21,-99.99,,,-99.99,,2013-01-19 01:42:00,
2013-01-18 17:52:00,57.0,17.0,-100.00,North,11,5.0,10.0,21,-99.99,,,-99.99,,2013-01-19 01:52:00,
2013-01-18 18:02:00,56.0,18.0,-100.00,North,11,5.0,9.0,22,-99.99,,,-99.99,,2013-01-19 02:02:00,
2013-01-18 18:12:00,55.0,17.0,-100.00,North,7,5.0,11.0,22,-99.99,,,-99.99,,2013-01-19 02:12:00,
2013-01-18 18:22:00,55.0,17.0,-100.00,North,10,7.0,10.0,22,-99.99,,,-99.99,,2013-01-19 02:22:00,
2013-01-18 18:32:00,54.0,16.0,-100.00,North,6,7.0,11.0,22,-99.99,,,-99.99,,2013-01-19 02:32:00,
2013-01-18 18:42:00,54.0,17.0,-100.00,North,9,7.0,12.0,23,-99.99,,,-99.99,,2013-01-19 02:42:00,
2013-01-18 18:52:00,54.0,17.0,-100.00,North,7,7.0,10.0,23,-99.99,,,-99.99,,2013-01-19 02:52:00,
2013-01-18 19:02:00,53.0,16.0,-100.00,NNE,13,7.0,8.0,23,-99.99,,,-99.99,,2013-01-19 03:02:00,
2013-01-18 19:12:00,53.0,16.0,-100.00,North,10,5.0,9.0,23,-99.99,,,-99.99,,2013-01-19 03:12:00,
2013-01-18 19:22:00,53.0,16.0,-100.00,NNE,13,6.0,9.0,23,-99.99,,,-99.99,,2013-01-19 03:22:00,
2013-01-18 19:32:00,54.0,16.0,-100.00,North,11,5.0,9.0,22,-99.99,,,-99.99,,2013-01-19 03:32:00,
2013-01-18 19:42:00,53.0,15.0,-100.00,North,11,6.0,10.0,22,-99.99,,,-99.99,,2013-01-19 03:42:00,
2013-01-18 19:52:00,53.0,15.0,-100.00,North,9,6.0,9.0,22,-99.99,,,-99.99,,2013-01-19 03:52:00,
2013-01-18 20:02:00,53.0,16.0,-100.00,NNE,12,5.0,8.0,23,-99.99,,,-99.99,,2013-01-19 04:02:00,
2013-01-18 20:12:00,53.0,15.0,-100.00,NNE,12,5.0,12.0,22,-99.99,,,-99.99,,2013-01-19 04:12:00,
2013-01-18 20:22:00,53.0,16.0,-100.00,North,10,5.0,12.0,23,-99.99,,,-99.99,,2013-01-19 04:22:00,
2013-01-18 20:32:00,53.0,16.0,-100.00,North,8,6.0,10.0,23,-99.99,,,-99.99,,2013-01-19 04:32:00,
2013-01-18 20:42:00,53.0,16.0,-100.00,North,8,7.0,10.0,23,-99.99,,,-99.99,,2013-01-19 04:42:00,
2013-01-18 20:52:00,53.0,16.0,-100.00,North,11,6.0,8.0,23,-99.99,,,-99.99,,2013-01-19 04:52:00,
2013-01-18 21:03:00,53.0,16.0,-100.00,North,11,6.0,8.0,23,-99.99,,,-99.99,,2013-01-19 05:03:00,
2013-01-18 21:12:00,53.0,15.0,-100.00,North,7,6.0,11.0,22,-99.99,,,-99.99,,2013-01-19 05:12:00,
2013-01-18 21:22:00,53.0,15.0,-100.00,NNE,12,7.0,11.0,22,-99.99,,,-99.99,,2013-01-19 05:22:00,
2013-01-18 21:32:00,53.0,15.0,-100.00,NNE,16,7.0,11.0,22,-99.99,,,-99.99,,2013-01-19 05:32:00,
2013-01-18 21:42:00,53.0,15.0,-100.00,NNE,17,5.0,10.0,22,-99.99,,,-99.99,,2013-01-19 05:42:00,
2013-01-18 21:52:00,53.0,15.0,-100.00,NNE,13,5.0,10.0,22,-99.99,,,-99.99,,2013-01-19 05:52:00,
2013-01-18 22:02:00,53.0,15.0,-100.00,NNE,17,6.0,10.0,22,-99.99,,,-99.99,,2013-01-19 06:02:00,
2013-01-18 22:12:00,53.0,15.0,-100.00,NNE,19,5.0,8.0,22,-99.99,,,-99.99,,2013-01-19 06:12:00,
2013-01-18 22:22:00,53.0,16.0,-100.00,NNE,18,5.0,11.0,23,-99.99,,,-99.99,,2013-01-19 06:22:00,
2013-01-18 22:32:00,53.0,16.0,-100.00,NNE,24,5.0,10.0,23,-99.99,,,-99.99,,2013-01-19 06:32:00,
2013-01-18 22:42:00,53.0,16.0,-100.00,NNE,22,4.0,8.0,23,-99.99,,,-99.99,,2013-01-19 06:42:00,
2013-01-18 22:52:00,53.0,16.0,-100.00,NNE,17,4.0,8.0,23,-99.99,,,-99.99,,2013-01-19 06:52:00,
2013-01-18 23:02:00,53.0,16.0,-100.00,NNE,14,5.0,9.0,23,-99.99,,,-99.99,,2013-01-19 07:02:00,
2013-01-18 23:12:00,53.0,16.0,-100.00,NNE,14,6.0,12.0,23,-99.99,,,-99.99,,2013-01-19 07:12:00,
2013-01-18 23:22:00,53.0,16.0,-100.00,NNE,16,7.0,11.0,23,-99.99,,,-99.99,,2013-01-19 07:22:00,
2013-01-18 23:32:00,53.0,16.0,-100.00,NNE,14,6.0,11.0,23,-99.99,,,-99.99,,2013-01-19 07:32:00,
2013-01-18 23:42:00,53.0,16.0,-100.00,NNE,14,6.0,11.0,23,-99.99,,,-99.99,,2013-01-19 07:42:00,
2013-01-18 23:52:00,53.0,16.0,-100.00,NNE,16,7.0,12.0,23,-99.99,,,-99.99,,2013-01-19 07:52:00,